1535259600.32,61284,18.56,73604.3,5.41,4.71,4.71,0,*74
1535259601.55,61285,18.56,73602.5,5.41,4.75,4.75,0,*75
1535259602.78,61286,18.56,73606.0,5.41,4.71,4.71,0,*76
1535259604.02,61287,18.56,73600.3,5.41,4.71,4.71,0,*77
1535259605.25,61288,18.56,73604.5,5.37,4.75,4.67,0,*7A
1535259606.49,61289,18.56,73604.8,5.41,4.71,4.71,0,*79
1535259607.72,61290,18.56,73604.3,5.41,4.71,4.67,0,*76
1535259608.95,61291,18.56,73602.5,5.41,4.71,4.67,0,*77
1535259610.19,61292,18.56,73604.0,5.41,4.71,4.67,0,*74
1535259611.41,61293,18.56,73604.0,5.41,4.67,4.67,0,*72
1535259612.64,61294,18.56,73598.0,5.41,4.59,4.59,0,*75
1535259613.87,61295,18.56,73600.3,5.41,4.67,4.67,0,*74
1535259615.09,61296,18.56,73602.8,5.41,4.67,4.59,0,*7A
1535259616.32,61297,18.56,73600.3,5.41,4.71,4.67,0,*71
1535259617.56,61298,18.56,73598.8,5.37,4.71,4.71,0,*78
1535259618.79,61299,18.56,73598.8,5.41,4.67,4.67,0,*78
1535259619.97,61300,18.56,73602.0,5.37,4.53,4.45,0,*7F
1535259621.18,61301,18.56,73596.5,5.37,4.63,4.57,0,*7E
1535259622.38,61302,18.56,73596.3,5.37,4.57,4.63,0,*7D
1535259623.56,61303,18.56,73598.0,5.37,4.57,4.57,0,*7B
1535259624.79,61304,18.56,73598.0,5.37,4.63,4.63,0,*7C
1535259626.02,61305,18.56,73596.5,5.37,4.67,4.67,0,*7D
1535259627.25,61306,18.56,73600.8,5.41,4.75,4.71,0,*7B
1535259628.49,61307,18.56,73602.8,5.41,4.71,4.71,0,*7E
1535259629.72,61308,18.56,73602.3,5.37,4.71,4.67,0,*77
1535259630.96,61309,18.56,73604.8,5.41,4.71,4.71,0,*70
1535259632.19,61310,18.56,73604.5,5.41,4.75,4.75,0,*78
1535259633.39,61311,18.56,73606.5,5.37,4.75,4.81,0,*73
1535259634.56,61312,18.56,73602.8,5.41,4.85,4.81,0,*7E
1535259635.76,61313,18.56,73606.5,5.41,4.71,4.81,0,*74
1535259636.93,61314,18.56,73604.0,5.41,4.81,4.81,0,*7C
1535259638.14,61315,18.56,73600.5,5.37,4.85,4.93,0,*7B
1535259639.31,61316,18.56,73600.0,5.41,4.89,4.89,0,*7E
1535259640.52,61317,18.56,73606.5,5.41,4.85,4.93,0,*78
1535259641.72,61318,18.56,73606.8,5.41,4.81,4.75,0,*7B
1535259642.92,61319,18.56,73602.3,5.41,4.75,4.81,0,*7A
1535259644.09,61320,18.56,73604.8,5.41,4.81,4.81,0,*7B
1535259645.29,61321,18.56,73602.5,5.37,4.81,4.79,0,*7C
1535259646.46,61322,18.56,73600.5,5.41,4.85,4.85,0,*79
1535259647.7,61323,18.56,73602.8,5.41,4.93,4.93,0,*78
1535259648.9,61324,18.56,73600.3,5.41,4.85,4.93,0,*78
1535259650.1,61325,18.56,73598.8,5.41,4.71,4.81,0,*71
1535259651.33,61326,18.56,73598.5,5.41,4.75,4.71,0,*79
1535259652.56,61327,18.56,73604.0,5.41,4.75,4.75,0,*7C
1535259653.77,61328,18.56,73606.0,5.41,4.85,4.75,0,*7C
1535259655.0,61329,18.56,73610.0,5.37,4.71,4.67,0,*74
1535259656.23,61330,18.56,73608.0,5.41,4.75,4.71,0,*7E
1535259657.47,61331,18.56,73610.8,5.41,4.71,4.71,0,*7B
1535259658.7,61332,18.56,73600.0,5.41,4.59,4.59,0,*78
1535259659.93,61333,18.56,73606.5,5.37,4.63,4.63,0,*78
1535259661.16,61334,18.56,73604.3,5.41,4.59,4.67,0,*73
1535259662.4,61335,18.56,73604.5,5.37,4.71,4.71,0,*7E
1535259663.64,61336,18.56,73604.8,5.41,4.71,4.71,0,*7C
1535259664.87,61337,18.56,73604.5,5.37,4.67,4.67,0,*7C
1535259666.09,61338,18.56,73608.3,5.41,4.67,4.67,0,*72
1535259667.32,61339,18.56,73600.3,5.41,4.05,4.05,0,*73
1535259668.51,61340,18.56,73598.0,5.41,4.37,4.33,0,*79
1535259669.68,61341,18.56,73596.8,5.37,4.23,4.19,0,*74
1535259670.91,61342,18.56,73608.8,5.35,4.31,4.27,0,*7B
1535259672.1,61343,18.56,73604.0,5.37,4.01,4.11,0,*7E
1535259673.33,61344,18.56,73602.8,5.37,3.97,3.97,0,*78
1535259674.57,61345,18.56,73596.8,5.35,3.97,3.97,0,*7B
1535259675.84,61346,18.56,73594.8,5.35,4.05,4.05,0,*78
1535259677.06,61347,18.56,73600.3,5.33,3.97,3.97,0,*7F
1535259678.27,61348,18.56,73598.8,5.35,4.07,4.07,0,*76
1535259679.5,61349,18.56,73600.3,5.33,4.31,4.31,0,*71
1535259680.69,61350,18.56,73598.8,5.33,4.31,4.27,0,*7E
1535259681.87,61351,18.56,73598.0,5.33,4.27,4.27,0,*78
1535259683.07,61352,18.56,73594.3,5.33,4.37,4.31,0,*7D
1535259684.28,61353,18.56,73610.0,5.33,4.59,4.53,0,*70
1535259685.49,61354,18.56,73600.5,5.31,4.27,4.33,0,*7A
1535259686.69,61355,18.56,73594.5,5.31,4.33,4.33,0,*7E
1535259687.9,61356,18.56,73596.5,5.31,4.33,4.45,0,*7C
1535259689.1,61357,18.56,73598.0,5.31,4.49,4.57,0,*73
1535259690.3,61358,18.56,73602.8,5.31,4.57,4.57,0,*73
1535259691.49,61359,18.56,73602.0,5.31,4.49,4.49,0,*72
1535259692.72,61360,18.56,73600.5,5.33,4.59,4.59,0,*7A
1535259693.98,61361,18.56,73604.0,5.31,4.63,4.63,0,*79
1535259695.23,61362,18.56,73602.5,5.31,4.59,4.59,0,*7A
1535259696.46,61363,18.56,73602.3,5.33,4.67,4.63,0,*7D
1535259697.72,61364,18.56,73604.5,5.35,4.75,4.75,0,*78
1535259698.94,61365,18.56,73610.0,5.33,4.79,4.79,0,*7F
1535259700.17,61366,18.56,73598.0,5.33,4.75,4.79,0,*70
1535259701.4,61367,18.56,73606.3,5.33,4.67,4.67,0,*7D
1535259702.62,61368,18.56,73606.8,5.33,4.63,4.67,0,*76
1535259703.89,61369,18.56,73606.5,5.35,4.67,4.75,0,*76
1535259705.11,61370,18.56,73606.5,5.33,4.79,4.79,0,*7B
1535259706.29,61371,18.56,73600.0,5.33,4.89,4.85,0,*76
1535259707.46,61372,18.56,73602.8,5.33,4.85,4.85,0,*79
1535259708.66,61373,18.56,73604.3,5.33,4.79,4.85,0,*7B
1535259709.92,61374,18.56,73606.5,5.35,4.79,4.79,0,*79
1535259711.12,61375,18.56,73604.3,5.35,4.89,4.89,0,*78
1535259712.33,61376,18.56,73608.3,5.35,4.85,4.85,0,*7B
1535259713.53,61377,18.56,73606.5,5.35,4.85,4.85,0,*7A
1535259714.79,61378,18.56,73606.0,5.35,4.79,4.79,0,*75
1535259716.05,61379,18.56,73610.5,5.35,4.75,4.75,0,*74
1535259717.31,61380,18.56,73608.0,5.35,4.75,4.79,0,*7E
1535259718.56,61381,18.5,73600.8,5.35,4.79,4.79,0,*73
1535259719.76,61382,18.56,73608.0,5.35,4.85,4.85,0,*70
1535259720.97,61383,18.56,73602.3,5.35,4.85,4.89,0,*7D
1535259722.17,61384,18.56,73602.0,5.37,4.81,4.79,0,*73
1535259723.37,61385,18.56,73598.3,5.37,4.89,4.79,0,*7A
1535259724.58,61386,18.56,73596.8,5.37,4.81,4.79,0,*71
1535259725.75,61387,18.56,73596.5,5.37,4.81,4.81,0,*77
1535259726.95,61388,18.56,73602.3,5.37,4.81,4.79,0,*7F
1535259728.15,61389,18.56,73598.0,5.37,4.79,4.81,0,*7E
1535259729.39,61390,18.56,73596.8,5.41,4.71,4.75,0,*74
1535259730.62,61391,18.56,73600.5,5.37,4.71,4.79,0,*78
1535259731.82,61392,18.56,73606.5,5.37,4.79,4.81,0,*74
1535259732.99,61393,18.56,73604.3,5.37,4.81,4.81,0,*72
1535259734.16,61394,18.56,73602.3,5.41,4.81,4.81,0,*74
1535259735.34,61395,18.56,73602.5,5.41,4.85,4.85,0,*75
1535259736.51,61396,18.56,73600.8,5.37,4.81,4.81,0,*77
1535259737.74,61397,18.56,73606.5,5.37,4.79,4.79,0,*76
1535259738.91,61398,18.56,73604.3,5.41,4.81,4.81,0,*78
1535259740.15,61399,18.56,73600.0,5.37,4.71,4.71,0,*78
1535259741.35,61400,18.56,73604.3,5.37,4.81,4.75,0,*74
1535259742.55,61401,18.56,73606.3,5.37,4.79,4.81,0,*79
1535259743.72,61402,18.56,73604.3,5.41,4.81,4.81,0,*7C
1535259744.92,61403,18.56,73600.5,5.41,4.79,4.81,0,*7A
1535259746.15,61404,18.56,73600.5,5.37,4.79,4.71,0,*73
1535259747.32,61405,18.56,73598.8,5.37,4.81,4.81,0,*7A
1535259748.52,61406,18.56,73600.3,5.37,4.79,4.81,0,*7E
1535259749.76,61407,18.56,73598.8,5.37,4.79,4.71,0,*70
1535259750.96,61408,18.56,73592.5,5.37,4.81,4.79,0,*70
1535259752.13,61409,18.56,73598.5,5.37,4.81,4.81,0,*76
1535259753.36,61410,18.56,73608.8,5.41,4.75,4.71,0,*7B
1535259754.6,61411,18.56,73612.0,5.37,4.75,4.71,0,*7B
1535259755.77,61412,18.56,73606.5,5.41,4.85,4.81,0,*79
1535259756.96,61413,18.56,73608.8,5.41,4.75,4.81,0,*77
1535259758.16,61414,18.56,73610.8,5.37,4.79,4.81,0,*7D
1535259759.39,61415,18.56,73610.3,5.37,4.79,4.79,0,*7B
1535259760.56,61416,18.56,73610.8,5.41,4.81,4.81,0,*79
1535259761.79,61417,18.56,73606.8,5.37,4.79,4.67,0,*76
1535259763.03,61418,18.56,73602.3,5.37,4.71,4.71,0,*76
1535259764.23,61419,18.5,73598.8,5.37,4.79,4.81,0,*70
1535259765.46,61420,18.56,73600.5,5.41,4.97,4.93,0,*78
1535259766.69,61421,18.56,73604.3,5.41,4.93,4.97,0,*79
1535259767.86,61422,18.56,73602.0,5.41,4.89,4.81,0,*76
1535259769.04,61423,18.56,73604.3,5.41,4.81,4.81,0,*7F
1535259770.26,61424,18.56,73602.5,5.37,4.79,4.79,0,*79
1535259771.43,61425,18.56,73596.8,5.41,4.81,4.81,0,*79
1535259772.61,61426,18.56,73598.3,5.41,4.81,4.85,0,*7E
1535259773.78,61427,18.56,73602.5,5.37,4.81,4.89,0,*72
1535259775.01,61428,18.56,73606.0,5.41,4.93,4.97,0,*70
1535259776.24,61429,18.56,73606.8,5.41,4.93,4.93,0,*75
1535259777.47,61430,18.56,73610.8,5.41,4.93,4.97,0,*79
1535259778.65,61431,18.56,73608.0,5.41,4.85,4.85,0,*7C
1535259779.85,61432,18.56,73604.0,5.41,4.75,4.81,0,*74
1535259781.08,61433,18.56,73608.5,5.41,4.71,4.71,0,*7E
1535259782.31,61434,18.56,73606.0,5.41,4.75,4.75,0,*79
1535259783.55,61435,18.56,73608.3,5.41,4.93,4.93,0,*78
1535259784.72,61436,18.56,73608.3,5.41,4.81,4.81,0,*7B
1535259785.95,61437,18.56,73604.0,5.41,4.75,4.71,0,*7E
1535259787.17,61438,18.56,73614.0,5.41,4.67,4.67,0,*75
1535259788.4,61439,18.56,73614.5,5.37,4.67,4.63,0,*71
1535259789.61,61440,18.56,73608.5,5.41,4.81,4.75,0,*71
1535259790.78,61441,18.56,73610.8,5.41,4.85,4.85,0,*7B
1535259791.95,61442,18.56,73612.5,5.41,4.85,4.81,0,*7C
1535259793.18,61443,18.56,73618.8,5.41,4.75,4.75,0,*79
1535259794.41,61444,18.56,73618.8,5.41,4.75,4.71,0,*7A
1535259795.61,61445,18.56,73616.8,5.41,4.75,4.81,0,*74
1535259796.78,61446,18.56,73614.8,5.41,4.85,4.85,0,*7C
1535259798.02,61447,18.56,73614.0,5.41,4.97,4.93,0,*79
1535259799.25,61448,18.56,73614.0,5.41,4.93,4.93,0,*72
1535259800.42,61449,18.56,73614.5,5.41,4.85,4.85,0,*73
1535259801.65,61450,18.56,73612.0,5.41,4.93,4.97,0,*7F
1535259802.83,61451,18.56,73610.3,5.41,4.81,4.85,0,*7E
1535259804.0,61452,18.56,73608.3,5.41,4.81,4.81,0,*79
1535259805.17,61453,18.56,73610.3,5.41,4.85,4.85,0,*78
1535259806.34,61454,18.56,73606.8,5.41,4.81,4.81,0,*7F
1535259807.52,61455,18.56,73606.0,5.41,4.85,4.85,0,*7E
1535259808.69,61456,18.56,73608.8,5.41,4.81,4.81,0,*7D
1535259809.88,61457,18.56,73612.0,5.41,4.75,4.81,0,*77
1535259811.12,61458,18.56,73610.5,5.41,4.71,4.71,0,*73
1535259812.36,61459,18.56,73614.8,5.41,4.71,4.75,0,*76
1535259813.59,61460,18.56,73614.0,5.41,4.71,4.71,0,*78
1535259814.82,61461,18.56,73610.5,5.41,4.75,4.71,0,*7D
1535259816.02,61462,18.56,73606.8,5.41,4.57,4.59,0,*74
1535259817.22,61463,18.56,73606.0,5.41,4.57,4.67,0,*78
1535259818.45,61464,18.56,73610.3,5.41,4.67,4.67,0,*7C
1535259819.69,61465,18.56,73608.3,5.41,4.71,4.75,0,*79
1535259820.92,61466,18.56,73614.8,5.41,4.67,4.71,0,*79
1535259822.15,61467,18.56,73612.8,5.41,4.71,4.71,0,*7F
1535259823.39,61468,18.56,73608.0,5.41,4.71,4.75,0,*74
1535259824.62,61469,18.56,73606.3,5.41,4.75,4.71,0,*75
1535259825.85,61470,18.56,73608.8,5.41,4.67,4.67,0,*79
1535259827.09,61471,18.56,73606.0,5.41,4.71,4.71,0,*78
1535259828.32,61472,18.56,73606.3,5.37,4.71,4.79,0,*72
1535259829.55,61473,18.56,73604.8,5.37,4.67,4.79,0,*74
1535259830.79,61474,18.56,73604.8,5.41,4.71,4.75,0,*79
1535259832.03,61475,18.56,73606.8,5.41,4.71,4.71,0,*7C
1535259833.2,61476,18.56,73608.8,5.41,4.81,4.85,0,*7B
1535259834.37,61477,18.56,73600.3,5.41,4.85,4.81,0,*7A
1535259835.6,61478,18.56,73600.8,5.37,4.67,4.67,0,*70
1535259836.82,61479,18.56,73610.0,5.41,4.67,4.59,0,*7D
1535259838.0,61480,18.56,73604.0,5.41,4.57,4.57,0,*76
1535259839.23,61481,18.56,73610.3,5.41,4.67,4.67,0,*77
1535259840.46,61482,18.56,73606.8,5.37,4.75,4.75,0,*75
1535259841.69,61483,18.56,73610.8,5.37,4.67,4.71,0,*73
1535259842.92,61484,18.56,73606.0,5.41,4.67,4.67,0,*72
1535259844.16,61485,18.56,73604.3,5.41,4.71,4.75,0,*77
1535259845.39,61486,18.56,73606.0,5.37,4.71,4.79,0,*79
1535259846.63,61487,18.56,73604.5,5.37,4.71,4.71,0,*70
1535259847.86,61488,18.56,73606.8,5.37,4.67,4.67,0,*7F
1535259849.09,61489,18.56,73610.3,5.37,4.63,4.67,0,*7A
1535259850.32,61490,18.56,73610.8,5.37,4.67,4.71,0,*71
1535259851.55,61491,18.56,73606.0,5.37,4.79,4.79,0,*77
1535259852.79,61492,18.56,73600.8,5.37,4.71,4.67,0,*73
1535259854.03,61493,18.56,73598.3,5.37,4.71,4.71,0,*75
1535259855.2,61494,18.5,73588.8,5.41,4.81,4.81,0,*73
1535259856.43,61495,18.56,73590.3,5.37,4.67,4.67,0,*73
1535259857.66,61496,18.56,73590.8,5.37,4.59,4.67,0,*7D
1535259858.86,61497,18.56,73584.0,5.37,4.41,4.31,0,*76
1535259860.07,61498,18.56,73586.0,5.37,4.31,4.23,0,*7D
1535259861.25,61499,18.56,73588.3,5.37,4.41,4.41,0,*7F
1535259862.42,61500,18.56,73590.0,5.41,4.45,4.49,0,*73
1535259863.6,61501,18.5,73590.3,5.37,4.53,4.53,0,*7F
1535259864.83,61502,18.56,73584.3,5.37,4.63,4.63,0,*7C
1535259866.06,61503,18.56,73586.8,5.37,4.63,4.67,0,*79
1535259867.31,61504,18.56,73584.0,5.35,4.67,4.67,0,*78
1535259868.57,61505,18.56,73584.8,5.35,4.63,4.63,0,*79
1535259869.8,61506,18.56,73590.5,5.37,4.63,4.63,0,*78
1535259871.03,61507,18.56,73590.5,5.37,4.67,4.63,0,*7D
1535259872.26,61508,18.56,73590.3,5.37,4.67,4.63,0,*72
1535259873.52,61509,18.56,73590.0,5.35,4.67,4.67,0,*75
1535259874.77,61510,18.56,73590.8,5.35,4.63,4.63,0,*7D
1535259876.03,61511,18.56,73588.3,5.35,4.67,4.67,0,*7C
1535259877.29,61512,18.56,73588.8,5.35,4.63,4.67,0,*7B
1535259878.54,61513,18.56,73592.8,5.35,4.67,4.67,0,*7E
1535259879.71,61514,18.56,73592.0,5.37,4.81,4.81,0,*7B
1535259880.91,61515,18.56,73596.8,5.41,4.81,4.79,0,*7C
1535259882.11,61516,18.56,73600.3,5.37,4.79,4.81,0,*7E
1535259883.35,61517,18.56,73598.8,5.37,4.79,4.71,0,*70
1535259884.58,61518,18.56,73598.3,5.37,4.79,4.79,0,*77
1535259885.77,61519,18.56,73598.8,5.37,4.79,4.81,0,*71
1535259886.98,61520,18.56,73600.0,5.41,4.85,4.93,0,*7A
1535259888.21,61521,18.56,73602.3,5.37,4.93,4.93,0,*7D
1535259889.42,61522,18.56,73606.5,5.37,4.89,4.93,0,*75
1535259890.65,61523,18.56,73604.5,5.37,4.79,4.79,0,*7F
1535259891.85,61524,18.56,73604.8,5.41,4.93,4.85,0,*7E
1535259893.08,61525,18.56,73608.3,5.41,4.93,4.93,0,*78
1535259894.32,61526,18.56,73612.8,5.37,4.93,4.93,0,*7A
1535259895.55,61527,18.56,73608.5,5.41,4.97,4.93,0,*7E
1535259896.78,61528,18.56,73610.0,5.41,4.97,4.97,0,*75
1535259898.01,61529,18.56,73606.3,5.41,4.93,4.93,0,*74
1535259899.24,61530,18.56,73598.5,5.41,4.93,4.93,0,*7C
1535259900.47,61531,18.56,73600.0,5.41,4.93,4.93,0,*7D
1535259901.68,61532,18.56,73600.8,5.41,4.85,4.93,0,*79
1535259902.91,61533,18.56,73598.5,5.41,4.93,4.93,0,*7F
1535259904.08,61534,18.56,73602.0,5.41,4.85,4.85,0,*78
1535259905.26,61535,18.56,73592.8,5.37,4.81,4.81,0,*78
1535259906.49,61536,18.56,73596.0,5.43,4.85,4.97,0,*7B
1535259907.69,61537,18.56,73594.3,5.41,4.85,4.93,0,*7C
1535259908.86,61538,18.56,73584.5,5.41,4.85,4.85,0,*74
1535259910.04,61539,18.56,73586.5,5.41,4.85,4.85,0,*75
1535259911.21,61540,18.56,73588.0,5.41,4.85,4.85,0,*7B
1535259912.39,61541,18.56,73594.8,5.41,4.81,4.85,0,*7E
1535259913.59,61542,18.56,73590.5,5.41,4.85,4.93,0,*7E
1535259914.76,61543,18.56,73594.0,5.41,4.81,4.81,0,*78
1535259915.96,61544,18.56,73596.3,5.41,4.85,4.93,0,*78
1535259917.19,61545,18.56,73606.0,5.41,4.93,4.93,0,*7E
1535259918.4,61546,18.56,73600.8,5.41,4.85,4.93,0,*7A
1535259919.6,61547,18.56,73600.0,5.41,4.85,4.93,0,*7B
1535259920.83,61548,18.56,73606.5,5.41,4.97,4.97,0,*73
1535259922.03,61549,18.56,73606.0,5.41,5.07,4.93,0,*7E
1535259923.26,61550,18.56,73612.8,5.41,4.93,5.05,0,*74
1535259924.52,61551,18.56,73606.5,5.43,5.01,5.01,0,*79
1535259925.76,61552,18.56,73606.3,5.43,4.89,5.01,0,*7B
1535259926.99,61553,18.56,73606.3,5.43,4.75,4.85,0,*74
1535259928.22,61554,18.56,73600.8,5.41,4.75,4.75,0,*7E
1535259929.39,61555,18.56,73606.0,5.41,4.81,4.81,0,*7F
1535259930.65,61556,18.56,73604.0,5.43,4.75,4.75,0,*7E
1535259931.88,61557,18.56,73602.8,5.41,4.75,4.75,0,*7D
1535259933.08,61558,18.5,73600.3,5.45,4.81,4.79,0,*71
1535259934.33,61559,18.56,73600.5,5.43,4.75,4.75,0,*71
1535259935.59,61560,18.56,73604.5,5.43,4.79,4.75,0,*77
1535259936.83,61561,18.56,73606.3,5.41,4.71,4.71,0,*78
1535259938.06,61562,18.56,73610.8,5.41,4.75,4.75,0,*7B
1535259939.23,61563,18.56,73606.8,5.41,4.81,4.85,0,*7E
1535259940.43,61564,18.56,73606.8,5.41,4.85,4.93,0,*7A
1535259941.66,61565,18.56,73606.5,5.43,4.97,4.89,0,*71
1535259942.92,61566,18.56,73602.8,5.43,5.01,4.97,0,*73
1535259944.15,61567,18.56,73600.8,5.41,4.93,4.97,0,*7A
1535259945.38,61568,18.56,73604.5,5.43,4.89,4.97,0,*7C
1535259946.64,61569,18.56,73600.3,5.43,5.01,4.97,0,*7C
1535259947.88,61570,18.56,73600.8,5.45,5.01,5.01,0,*7C
1535259949.11,61571,18.56,73596.3,5.41,4.93,4.93,0,*79
1535259950.34,61572,18.56,73600.0,5.41,4.97,5.01,0,*74
1535259951.58,61573,18.56,73594.8,5.45,5.05,5.01,0,*7B
1535259952.81,61574,18.56,73598.5,5.45,5.01,5.01,0,*78
1535259953.98,61575,18.5,73596.0,5.41,4.81,4.81,0,*7D
1535259955.21,61576,18.56,73598.0,5.43,4.79,4.85,0,*7F
1535259956.44,61577,18.56,73594.3,5.43,4.79,4.85,0,*7E
1535259957.69,61578,18.56,73592.5,5.43,4.75,4.79,0,*7E
1535259958.93,61579,18.56,73598.5,5.41,4.71,4.75,0,*75
1535259960.18,61580,18.56,73596.5,5.43,4.75,4.75,0,*75
1535259961.45,61581,18.56,73598.5,5.43,4.71,4.71,0,*74
1535259962.7,61582,18.56,73594.3,5.43,4.63,4.63,0,*77
1535259963.96,61583,18.56,73598.5,5.43,4.63,4.63,0,*76
1535259965.18,61584,18.56,73598.8,5.41,4.67,4.67,0,*73
1535259966.44,61585,18.56,73604.0,5.43,4.71,4.63,0,*73
1535259967.67,61586,18.56,73602.5,5.41,4.67,4.67,0,*71
1535259968.9,61587,18.56,73604.5,5.41,4.67,4.67,0,*70
1535259970.16,61588,18.56,73610.5,5.43,4.71,4.71,0,*7D
1535259971.33,61589,18.56,73604.8,5.41,4.81,4.81,0,*7E
1535259972.56,61590,18.56,73610.8,5.41,4.75,4.75,0,*76
1535259973.82,61591,18.56,73608.3,5.43,4.75,4.75,0,*75
1535259975.05,61592,18.56,73614.0,5.41,4.75,4.71,0,*70
1535259976.29,61593,18.56,73614.8,5.41,4.71,4.71,0,*75
1535259977.52,61594,18.56,73612.8,5.41,4.71,4.75,0,*76
1535259978.72,61595,18.56,73614.3,5.41,4.75,4.81,0,*78
1535259979.93,61596,18.56,73614.0,5.41,4.71,4.81,0,*7F
1535259981.16,61597,18.56,73610.5,5.41,4.71,4.71,0,*71
1535259982.39,61598,18.56,73610.5,5.41,4.75,4.71,0,*7A
1535259983.62,61599,18.56,73612.3,5.41,4.75,4.75,0,*7F
1535259984.86,61600,18.56,73612.0,5.41,4.75,4.71,0,*78
1535259986.06,61601,18.56,73612.3,5.43,4.89,4.85,0,*73
1535259987.26,61602,18.56,73608.3,5.43,4.89,4.85,0,*70
1535259988.5,61603,18.56,73604.0,5.41,4.71,4.71,0,*7F
1535259989.73,61604,18.56,73600.5,5.41,4.59,4.59,0,*78
1535259990.91,61605,18.56,73606.5,5.41,4.37,4.45,0,*7C
1535259992.08,61606,18.56,73610.5,5.41,4.45,4.37,0,*7F
1535259993.28,61607,18.56,73608.5,5.41,4.57,4.59,0,*75
1535259994.46,61608,18.5,73608.8,5.37,4.45,4.45,0,*75
1535259995.63,61609,18.56,73608.8,5.41,4.57,4.57,0,*75
1535259996.86,61610,18.56,73602.8,5.41,4.67,4.67,0,*7D
1535259998.04,61611,18.56,73606.3,5.41,4.53,4.53,0,*7C
1535259999.22,61612,18.56,73602.3,5.37,4.53,4.53,0,*7E
1535260000.44,61613,18.56,73600.0,5.41,4.67,4.59,0,*73
1535260001.67,61614,18.56,73598.8,5.41,4.59,4.59,0,*79
1535260002.84,61615,18.56,73600.5,5.41,4.49,4.57,0,*77
1535260004.04,61616,18.56,73604.5,5.41,4.57,4.59,0,*75
1535260005.26,61617,18.56,73608.8,5.41,4.67,4.67,0,*7A
1535260006.49,61618,18.56,73610.5,5.41,4.67,4.67,0,*75
1535260007.72,61619,18.56,73610.0,5.37,4.67,4.67,0,*75
1535260008.95,61620,18.56,73610.8,5.37,4.63,4.63,0,*7F
1535260010.15,61621,18.56,73614.8,5.37,4.57,4.63,0,*79
1535260011.33,61622,18.56,73610.3,5.37,4.57,4.53,0,*79
1535260012.56,61623,18.56,73614.8,5.37,4.63,4.63,0,*7C
1535260013.77,61624,18.56,73614.0,5.37,4.63,4.57,0,*7C
1535260015.0,61625,18.56,73608.3,5.37,4.63,4.63,0,*7A
1535260016.23,61626,18.56,73608.8,5.37,4.63,4.63,0,*79
1535260017.45,61627,18.56,73612.8,5.37,4.63,4.63,0,*78
1535260018.69,61628,18.56,73616.0,5.37,4.71,4.67,0,*70
1535260019.86,61629,18.56,73614.3,5.41,4.85,4.81,0,*73
1535260021.03,61630,18.5,73612.0,5.37,4.81,4.89,0,*76
1535260022.24,61631,18.56,73612.5,5.37,4.85,4.93,0,*78
1535260023.41,61632,18.56,73614.3,5.37,4.81,4.81,0,*7C
1535260024.58,61633,18.56,73614.3,5.41,4.81,4.89,0,*74
1535260025.81,61634,18.56,73614.0,5.41,4.93,4.93,0,*7B
1535260027.05,61635,18.56,73608.8,5.41,4.93,4.93,0,*7A
1535260028.22,61636,18.56,73614.0,5.37,4.89,4.81,0,*70
1535260029.42,61637,18.56,73616.3,5.41,4.75,4.81,0,*73
1535260030.66,61638,18.56,73614.8,5.37,4.71,4.71,0,*76
1535260031.89,61639,18.56,73612.8,5.37,4.67,4.67,0,*77
1535260033.13,61640,18.56,73614.3,5.41,4.71,4.71,0,*78
1535260034.33,61641,18.56,73614.3,5.41,4.81,4.75,0,*72
1535260035.5,61642,18.56,73610.3,5.41,4.81,4.81,0,*7A
1535260036.73,61643,18.5,73594.5,5.41,4.75,4.71,0,*7F
1535260037.97,61644,18.56,73592.8,5.37,4.71,4.71,0,*7D
1535260039.14,61645,18.56,73594.3,5.41,4.81,4.81,0,*7D
1535260040.34,61646,18.56,73592.3,5.41,4.79,4.81,0,*79
1535260041.54,61647,18.56,73594.3,5.37,4.81,4.79,0,*79
1535260042.71,61648,18.56,73592.8,5.41,4.85,4.85,0,*70
1535260043.89,61649,18.56,73598.8,5.41,4.85,4.85,0,*71
1535260045.06,61650,18.56,73598.3,5.41,4.81,4.85,0,*7D
1535260046.23,61651,18.56,73602.8,5.41,4.81,4.81,0,*78
1535260047.46,61652,18.5,73598.3,5.41,4.75,4.75,0,*7B
1535260048.7,61653,18.56,73608.5,5.41,4.71,4.71,0,*7A
1535260049.93,61654,18.56,73608.0,5.41,4.59,4.67,0,*70
1535260051.16,61655,18.56,73608.0,5.41,4.67,4.67,0,*7C
1535260052.4,61656,18.56,73606.3,5.37,4.71,4.71,0,*7E
1535260053.64,61657,18.56,73602.0,5.37,4.71,4.71,0,*7F
1535260054.86,61658,18.56,73598.0,5.37,4.67,4.67,0,*70
1535260056.07,61659,18.56,73588.0,5.41,4.81,4.71,0,*7F
1535260057.31,61660,18.56,73592.0,5.41,4.71,4.71,0,*7A
1535260058.53,61661,18.56,73588.5,5.37,4.67,4.67,0,*7A
1535260059.76,61662,18.56,73590.3,5.41,4.59,4.59,0,*78
1535260060.94,61663,18.56,73590.3,5.37,4.57,4.57,0,*78
1535260062.11,61664,18.56,73592.0,5.41,4.49,4.49,0,*7E
1535260063.29,61665,18.56,73588.5,5.37,4.53,4.53,0,*7E
1535260064.47,61666,18.56,73592.0,5.37,4.53,4.53,0,*7D
1535260065.65,61667,18.56,73594.0,5.37,4.57,4.57,0,*7C
1535260066.83,61668,18.5,73596.3,5.37,4.53,4.45,0,*74
1535260068.0,61669,18.56,73598.3,5.37,4.57,4.57,0,*72
1535260069.23,61670,18.56,73602.3,5.37,4.63,4.63,0,*7A
1535260070.47,61671,18.56,73606.3,5.37,4.71,4.71,0,*7B
1535260071.71,61672,18.56,73608.3,5.37,4.71,4.79,0,*70
1535260072.94,61673,18.56,73604.5,5.37,4.67,4.79,0,*76
1535260074.17,61674,18.56,73606.5,5.37,4.67,4.67,0,*7E
1535260075.41,61675,18.5,73598.0,5.37,4.71,4.71,0,*7F
1535260076.58,61676,18.56,73600.8,5.41,4.81,4.81,0,*7D
1535260077.81,61677,18.56,73596.8,5.37,4.67,4.71,0,*7A
1535260079.04,61678,18.56,73598.0,5.37,4.67,4.67,0,*72
1535260080.27,61679,18.5,73592.3,5.37,4.67,4.67,0,*73
1535260081.51,61680,18.56,73592.5,5.37,4.71,4.71,0,*75
1535260082.75,61681,18.5,73588.8,5.37,4.71,4.71,0,*74
1535260083.92,61682,18.56,73596.3,5.37,4.81,4.81,0,*77
1535260085.12,61683,18.56,73598.3,5.41,4.79,4.81,0,*70
1535260086.36,61684,18.56,73600.3,5.37,4.71,4.71,0,*71
1535260087.56,61685,18.56,73606.5,5.37,4.79,4.81,0,*77
1535260088.79,61686,18.56,73604.5,5.37,4.79,4.79,0,*73
1535260090.02,61687,18.5,73598.3,5.37,4.71,4.67,0,*75
1535260091.26,61688,18.56,73600.5,5.41,4.71,4.71,0,*7C
1535260092.5,61689,18.56,73600.0,5.37,4.71,4.71,0,*7C
1535260093.7,61690,18.56,73606.5,5.37,4.79,4.81,0,*73
1535260094.87,61691,18.56,73606.0,5.41,4.81,4.85,0,*70
1535260096.07,61692,18.56,73610.5,5.37,4.81,4.79,0,*71
1535260097.3,61693,18.56,73608.3,5.37,4.67,4.67,0,*77
1535260098.53,61694,18.56,73604.5,5.37,4.67,4.67,0,*70
1535260099.77,61695,18.56,73602.5,5.37,4.71,4.71,0,*71
1535260101.0,61696,18.56,73602.3,5.37,4.79,4.79,0,*72
1535260102.17,61697,18.56,73606.8,5.41,4.81,4.81,0,*72
1535260103.4,61698,18.56,73606.5,5.37,4.75,4.71,0,*78
1535260104.64,61699,18.56,73610.0,5.41,4.71,4.71,0,*7C
1535260105.87,61700,18.56,73606.3,5.37,4.67,4.67,0,*7C
1535260107.11,61701,18.56,73606.5,5.37,4.71,4.67,0,*7A
1535260108.35,61702,18.56,73608.3,5.37,4.71,4.71,0,*7E
1535260109.59,61703,18.56,73608.5,5.37,4.71,4.71,0,*7F
1535260110.82,61704,18.56,73614.5,5.37,4.67,4.71,0,*7F
1535260112.06,61705,18.56,73612.0,5.41,4.71,4.71,0,*78
1535260113.29,61706,18.5,73608.5,5.37,4.63,4.67,0,*7E
1535260114.49,61707,18.56,73608.8,5.37,4.57,4.63,0,*7C
1535260115.7,61708,18.56,73612.8,5.37,4.63,4.57,0,*73
1535260116.92,61709,18.56,73616.5,5.41,4.59,4.59,0,*74
1535260118.1,61710,18.56,73612.3,5.37,4.57,4.57,0,*7D
1535260119.3,61711,18.56,73614.0,5.37,4.57,4.63,0,*7B
1535260120.51,61712,18.56,73612.8,5.35,4.53,4.53,0,*7D
1535260121.75,61713,18.5,73614.0,5.35,4.59,4.53,0,*76
1535260122.98,61714,18.5,73614.3,5.35,4.59,4.53,0,*71
1535260124.23,61715,18.56,73622.0,5.35,4.59,4.59,0,*7A
1535260125.49,61716,18.56,73618.5,5.35,4.59,4.59,0,*79
1535260126.72,61717,18.56,73622.3,5.35,4.53,4.59,0,*72
1535260127.98,61718,18.56,73612.0,5.35,4.59,4.59,0,*77
1535260129.2,61719,18.5,73608.8,5.33,4.63,4.63,0,*70
1535260130.43,61720,18.5,73610.8,5.33,4.67,4.67,0,*7A